Monistrol de Calders (Moianès)





Hora UTC 08:15
Temperatura 9.1 ºC
Humedad 83.0 %
Presión 1002.2 hPa
Pluja 0.6 mm
Velocidad viento 0.0 km/h
Dirección viento WSW

Datos diarios 2022-12-10



Hora UTC (invierno +1h; verano +2h)
Temperatura (ºC) Humedad (%) Presión (hPa) Velocidad viento (km/h) Precipitación (mm)
Hora UTC Aire Humedad Presión Vel. Dir. Vel. Max Dir. Intent. máx 5 min.
00:05 8.7 85.0 999.3 0.0 S 0.0 0.0
00:10 8.7 85.0 999.2 0.0 S 0.0 0.0
00:15 8.6 85.0 999.2 0.0 S 0.0 0.2
00:20 8.6 85.0 999.2 0.0 S 0.0 0.0
00:25 8.6 85.0 999.2 0.0 S 4.8 0.0
00:30 8.6 85.0 999.2 0.0 S 4.8 0.0
00:35 8.6 85.0 999.1 0.0 S 0.0 0.0
00:40 8.6 85.0 999.0 0.0 S 0.0 0.0
00:45 8.5 85.0 998.9 0.0 S 0.0 0.0
00:50 8.4 85.0 998.9 0.0 S 0.0 0.0
00:55 8.4 85.0 999.0 0.0 S 0.0 0.0
01:00 8.4 85.0 999.1 0.0 S 0.0 0.0
01:05 8.3 85.0 999.0 0.0 S 0.0 0.0
01:10 8.3 85.0 999.0 0.0 S 0.0 0.0
01:15 8.3 85.0 999.1 0.0 S 0.0 0.0
01:20 8.3 85.0 999.1 0.0 S 0.0 0.0
01:25 8.3 85.0 999.1 0.0 S 0.0 0.0
01:30 8.3 85.0 999.1 0.0 S 0.0 0.0
01:35 8.3 85.0 999.2 0.0 S 0.0 0.0
01:40 8.3 85.0 999.2 0.0 S 0.0 0.0
01:45 8.2 85.0 999.3 0.0 S 0.0 0.0
01:50 8.2 85.0 999.3 0.0 S 1.6 0.0
01:55 8.1 85.0 999.4 0.0 S 1.6 0.0
02:00 8.2 85.0 999.5 0.0 S 0.0 0.0
02:05 8.2 85.0 999.5 0.0 S 1.6 0.0
02:10 8.2 85.0 999.5 0.0 S 1.6 0.0
02:15 8.1 85.0 999.5 0.0 S 0.0 0.0
02:20 8.1 85.0 999.6 0.0 S 0.0 0.0
02:25 8.1 85.0 999.5 0.0 S 0.0 0.0
02:30 8.0 85.0 999.6 0.0 S 0.0 0.0
02:35 8.0 85.0 999.6 0.0 S 0.0 0.0
02:40 7.9 85.0 999.7 0.0 S 0.0 0.0
02:45 7.9 85.0 999.6 0.0 S 0.0 0.0
02:50 7.9 85.0 999.6 0.0 S 0.0 0.0
02:55 7.8 85.0 999.7 0.0 S 0.0 0.0
03:00 7.8 85.0 999.7 0.0 S 0.0 0.0
03:05 7.8 85.0 999.7 0.0 S 1.6 0.0
03:10 7.8 85.0 999.7 0.0 S 1.6 0.0
03:15 7.8 85.0 999.7 0.0 S 1.6 0.0
03:20 7.8 85.0 999.8 0.0 S 0.0 0.0
03:25 7.8 85.0 999.8 0.0 S 0.0 0.0
03:30 7.8 85.0 999.8 0.0 S 0.0 0.0
03:35 7.8 85.0 999.9 0.0 S 0.0 0.0
03:40 7.8 85.0 999.9 0.0 S 0.0 0.0
03:45 7.8 85.0 999.9 0.0 S 0.0 0.0
03:50 7.9 85.0 1000.0 0.0 S 0.0 0.0
03:55 7.9 85.0 1000.0 0.0 S 0.0 0.0
04:00 7.9 85.0 1000.0 0.0 S 0.0 0.0
04:05 7.8 85.0 1000.1 0.0 S 0.0 0.0
04:10 7.8 85.0 1000.1 0.0 S 0.0 0.2
04:15 7.8 85.0 1000.1 0.0 S 0.0 0.0
04:20 7.8 85.0 1000.2 0.0 S 0.0 0.0
04:25 7.9 85.0 1000.2 0.0 S 1.6 0.0
04:30 7.9 85.0 1000.2 0.0 S 1.6 0.0
04:35 7.9 85.0 1000.3 0.0 S 0.0 0.0
04:40 7.9 85.0 1000.3 0.0 S 0.0 0.0
04:45 7.9 85.0 1000.4 0.0 S 1.6 0.0
04:50 7.9 85.0 1000.3 1.6 S 3.2 0.0
04:55 7.9 84.0 1000.1 1.6 S 4.8 0.0
05:00 8.0 84.0 1000.2 0.0 S 4.8 0.2
05:05 8.0 84.0 1000.2 0.0 S 4.8 0.0
05:10 8.1 84.0 1000.2 0.0 S 0.0 0.0
05:15 8.1 84.0 1000.3 0.0 S 0.0 0.0
05:20 8.1 84.0 1000.3 0.0 S 0.0 0.0
05:25 8.1 84.0 1000.3 0.0 S 0.0 0.0
05:30 8.1 84.0 1000.5 0.0 S 0.0 0.0
05:35 8.1 84.0 1000.5 0.0 S 0.0 0.0
05:40 8.1 84.0 1000.6 0.0 S 0.0 0.0
05:45 8.1 84.0 1000.6 0.0 S 0.0 0.0
05:50 8.1 84.0 1000.6 0.0 S 0.0 0.0
05:55 8.1 84.0 1000.6 0.0 S 0.0 0.0
06:00 8.2 84.0 1000.7 0.0 S 0.0 0.0
06:05 8.2 84.0 1000.7 0.0 S 0.0 0.0
06:10 8.2 84.0 1000.8 0.0 S 0.0 0.0
06:15 8.2 84.0 1000.9 0.0 S 0.0 0.0
06:20 8.2 84.0 1000.9 0.0 S 0.0 0.0
06:25 8.3 84.0 1001.1 0.0 S 1.6 0.0
06:30 8.3 84.0 1001.2 0.0 S 1.6 0.0
06:35 8.3 84.0 1001.3 0.0 S 0.0 0.0
06:40 8.3 84.0 1001.3 0.0 S 0.0 0.0
06:45 8.3 84.0 1001.4 0.0 S 0.0 0.0
06:50 8.3 84.0 1001.4 0.0 S 1.6 0.0
06:55 8.4 84.0 1001.4 0.0 S 1.6 0.0
07:00 8.4 84.0 1001.5 0.0 S 1.6 0.0
07:05 8.4 84.0 1001.5 0.0 S 0.0 0.0
07:10 8.4 84.0 1001.6 0.0 S 1.6 0.0
07:15 8.4 84.0 1001.6 0.0 S 1.6 0.0
07:20 8.4 84.0 1001.7 1.6 S 1.6 0.0
07:25 8.5 84.0 1001.6 0.0 S 1.6 0.0
07:30 8.6 84.0 1001.6 0.0 S 1.6 0.0
07:35 8.6 84.0 1001.7 0.0 S 1.6 0.0
07:40 8.6 84.0 1001.8 0.0 S 0.0 0.0
07:45 8.6 84.0 1001.8 0.0 S 0.0 0.0
07:50 8.7 84.0 1001.9 0.0 S 0.0 0.0
07:55 8.7 84.0 1001.9 0.0 S 0.0 0.0
08:00 8.7 83.0 1001.9 0.0 S 0.0 0.0
08:00 8.8 84.0 1001.9 0.0 S 1.6 0.0
08:05 8.9 83.0 1002.0 4.8 WNW 4.8 0.0
08:10 9.0 83.0 1002.0 0.0 NW 4.8 0.0
08:15 9.1 83.0 1002.2 0.0 WSW 6.4 0.0
Máxima 9.1 85.0 1002.2 4.8 WNW 6.4 0.2
Mínima 7.8 83.0 998.9
Total 0.6